Regional Weather Roundup
Issued by NWS Cleveland, OH

Home | Current Version | Previous Version | Graphics & Text | Print | Product List | Glossary On
Versions: 1 2 3 4 5 6 7 8 9 10 11 12 13 14 15 16 17 18 19 20 21 22 23 24 25 26 27 28 29 30 31 32 33 34 35 36 37 38 39 40 41 42 43 44 45 46 47 48 49 50
013
ASUS41 KCLE 102210
RWRCLE
OHIO REGIONAL WEATHER ROUNDUP
NATIONAL WEATHER SERVICE CLEVELAND, OH
500 PM EST WED FEB 10 2016

NOTE: "FAIR" INDICATES FEW OR NO CLOUDS BELOW 12,000 FEET WITH NO
SIGNIFICANT WEATHER AND/OR OBSTRUCTIONS TO VISIBILITY.

OHZ001>008-015>018-024>027-034-035-043-044-102300-
   NORTHWEST OHIO

CITY           SKY/WX    TMP DP  RH WIND       PRES   REMARKS
DEFIANCE       FLURRIES  21  12  68 W10G20    29.94R WCI  10
FINDLAY        SNOW      20  15  81 W16G30    29.92R VSB 1/2 WCI   6
TOLEDO EXPRESS CLOUDY    21   9  59 NW14G21   29.90R WCI   8
TOLEDO EXEC    CLOUDY    23   9  55 W16       29.91R WCI  10
LIMA           PTSUNNY   18  10  71 W18       29.94R WCI   2
$$

OHZ009>014-019>023-028>033-038-089-102300-
   NORTHEAST OHIO

CITY           SKY/WX    TMP DP  RH WIND       PRES   REMARKS
CLE-HOPKINS    LGT SNOW  20  14  77 W9        29.89R BLWGSNOWWCI   9
CLE-LAKEFRONT  FLURRIES  24  13  62 W22       29.86R WCI   9
CUY CO. ARPT   CLOUDY    21  14  73 NW16      29.85R WCI   7
LORAIN-ELYRIA  CLOUDY    21  11  65 W12       29.87S WCI   9
ASHTABULA      LGT SNOW  18  14  84 NW7       29.84R FOG     WCI   9
AKRON-CANTON   HVY SNOW  19  14  81 W13       29.84R VSB 1/4 WCI   6
WOOSTER        MOCLDY    19  11  70 W16G26    29.86R WCI   4
MANSFIELD      HVY SNOW  17  15  92 W10       29.86R VSB 1/4 WCI   5
YOUNGSTOWN     FLURRIES  21  14  74 W9        29.81R WCI  11
$$

OHZ042-051>053-060>062-070>072-077>081-102300-
  SOUTHWEST OHIO

CITY           SKY/WX    TMP DP  RH WIND       PRES   REMARKS
CINC-COVINGTON CLOUDY    17   4  56 W13       30.04R WCI   4
CINC-LUNKEN    CLOUDY    18   7  62 SW13      30.08R WCI   5
HAMILTON       CLOUDY    18   5  57 W13G21    30.07R WCI   5
DAYTON         CLOUDY    15   6  67 W17       30.00R WCI  -1
WRIGHT-PAT AFB CLOUDY    16   6  65 W16       30.01R WCI   1
DAYTON GENERAL CLOUDY    15   3  59 W13G21    30.01R WCI   1
WILMINGTON     CLOUDY    14   6  70 W17       29.99R WCI  -3
$$

OHZ036-037-039>041-045>050-054>059-063>069-073>076-082>088-102300-
  CENTRAL AND SOUTHEAST OHIO

CITY           SKY/WX    TMP DP  RH WIND       PRES   REMARKS
COLUMBUS       LGT SNOW  18   9  68 W17       29.97R WCI   2
OSU AIRPORT    CLOUDY    17   9  70 W15G24    29.96R WCI   2
BOLTON FIELD   CLOUDY    18  10  73 W14G21    29.98R WCI   4
RICKENBACK AFB CLOUDY    17  10  74 W16G24    29.99R WCI   2
NEWARK         LGT SNOW  20  11  68 MISG      29.94R
MARION         FLURRIES  19   9  65 W15G25    29.92R WCI   5
LANCASTER      CLOUDY    18   9  68 W14       29.98R WCI   4
ZANESVILLE     CLOUDY    20  11  68 W9G20     29.93R WCI   9
NEW PHILLY     CLOUDY    21  12  68 SW12G18   29.90R WCI   9
$$




USA.gov is the U.S. government's official web portal to all federal, state and local government web resources and services.